Location: Rounton
(54.4000°N, 1.3500°W)
Time: 04:48:09
(UTC+00:00)

A-11 Canister half - Pass Details

Date: 01 December 2021
Orbit: 1516 x 1684 km, 47.2° (Epoch: 21 January)

Event Time Altitude Azimuth Distance (km) Brightness Sun altitude
Rises 12:29:28 0° 276° (W) 4,880 11.7 13.3°
Reaches altitude 10° 12:32:43 10° 271° (W) 3,910 11.3 13.3°
Maximum altitude 12:42:09 48° 202° (SSW) 2,100 10.8 13.0°
Drops below altitude 10° 12:51:40 10° 132° (SE) 3,942 11.6 12.7°
Sets 12:54:58 0° 127° (SE) 4,923 12.0 12.6°
